Location: Bidart
(43.4376°N, 1.5913°W)
Time: 19:16:50
(UTC+00:00)

COBE Rocket - Pass Details

Date: 19 May 2025
Orbit: 676 x 772 km, 97.1° (Epoch: 22 June)

Event Time Altitude Azimuth Distance (km) Brightness Sun altitude
Rises 21:53:00 0° 18° (NNE) 3,236 7.8 -19.9°
Reaches altitude 10° 21:55:26 10° 26° (NNE) 2,314 6.9 -20.2°
Maximum altitude 22:00:18 42° 97° (E) 1,094 4.5 -20.6°
Enters shadow 22:01:01 40° 118° (ESE) 1,136 4.4 -20.7°
